Temperature
19 19 19 19 18 18 18 18 18 18 18 18 18 18 17 17 17 17 17 17 17 16 16 16 16 16 16 16 16 16 16 16 16 16 16 16 16 16 16 16 16 16 16
18 18 18 18 18 18 18 18 18 18 18 18 18 18 17 17 17 17 17 17 16 16 16 16 16 16 15 15 15 15 16 16 16 16 16 16 16 16 16 16 16 16 16
18 18 18 17 17 18 18 17 18 18 18 18 18 17 17 17 17 17 17 17 16 16 16 16 15 15 15 15 15 15 16 16 16 16 16 16 16 16 16 16 16 16 16
18 18 18 17 17 17 17 18 17 17 17 17 18 18 17 17 17 17 17 16 16 16 15 15 15 15 15 15 15 15 15 15 16 16 16 16 16 16 16 16 16 16 16
19 18 18 18 18 17 17 17 17 17 17 17 18 18 17 17 17 17 16 16 16 16 15 15 15 15 15 15 15 15 15 15 15 16 16 16 16 16 16 16 16 16 16
18 18 18 18 17 17 17 17 17 17 17 17 17 17 17 17 17 17 16 16 16 16 16 15 15 15 15 15 15 15 15 15 15 15 16 16 16 16 16 16 16 16 16
19 18 18 17 17 17 17 17 17 17 17 17 17 17 17 17 17 17 16 16 16 16 16 16 15 15 15 15 15 15 15 15 15 15 15 15 16 16 16 16 16 16 16
19 19 18 18 18 17 17 17 17 17 17 17 17 17 17 17 17 17 16 16 16 16 16 16 16 15 16 16 15 15 15 15 15 15 15 15 15 15 15 15 15 16 16
19 19 19 18 18 18 17 17 17 17 17 17 17 17 17 17 17 17 16 16 16 16 16 16 16 16 16 16 15 15 15 15 15 15 15 15 15 15 15 15 15 15 15
19 19 19 19 18 18 18 18 17 17 17 17 17 17 17 17 17 17 17 17 16 16 16 16 16 16 16 16 16 16 16 16 15 15 15 15 15 15 15 15 15 15 15
20 20 19 19 19 18 18 18 18 18 17 17 17 17 17 17 17 17 17 17 17 16 16 16 16 16 16 16 16 16 16 16 16 16 16 16 15 15 15 15 15 15 15
20 20 20 19 19 19 18 18 18 18 18 18 18 17 17 17 17 17 17 17 17 17 17 17 17 16 16 16 16 16 16 16 16 16 16 16 16 16 15 15 15 15 15
21 20 20 19 19 19 19 18 18 18 18 18 18 17 17 17 18 18 17 17 17 17 17 17 17 17 17 17 17 16 16 16 16 16 16 16 16 16 16 15 15 15 15
20 20 20 20 20 19 19 19 19 19 18 18 18 18 18 18 18 18 17 17 17 17 17 17 17 17 17 17 17 16 16 16 16 16 16 16 16 16 15 15 15 15 15
19 20 20 20 20 19 19 19 19 19 19 18 18 18 18 18 18 18 17 17 17 17 17 17 17 16 16 16 16 16 16 16 16 16 16 16 15 15 15 15 15 15 14
19 19 19 19 19 19 19 19 19 19 18 18 18 18 18 18 17 17 17 17 17 17 17 17 16 16 16 16 16 16 16 16 16 16 15 15 15 15 14 14 14 14 14
18 18 19 19 19 19 19 19 19 19 18 18 18 18 17 17 17 17 17 17 16 16 16 16 16 16 16 15 15 15 15 15 15 15 15 14 14 14 14 14 14 13 13
17 17 18 18 18 18 18 18 18 18 17 17 17 17 16 16 16 16 16 16 16 15 15 15 15 15 15 15 14 14 14 14 14 14 13 13 13 13 13 13 13 13 13
16 16 17 17 17 17 17 17 17 16 16 16 16 16 16 15 15 15 15 15 15 14 14 14 14 14 14 13 13 13 13 13 13 12 12 12 12 12 12 12 12 12 12
15 15 15 16 16 15 16 16 15 15 15 15 15 14 14 14 14 14 14 14 14 14 13 13 13 13 13 12 12 12 12 12 12 12 11 11 11 11 11 11 11 11 11
14 15 15 15 15 15 15 15 14 14 13 13 14 13 13 13 13 13 13 13 13 13 12 12 12 12 12 11 11 11 11 11 11 11 10 10 10 10 10 10 9 9 9
14 14 14 14 14 14 15 14 13 13 13 13 13 13 13 12 12 12 12 12 12 12 11 11 11 11 11 10 10 10 10 9 9 9 9 9 9 9 9 9 9 8 8
13 14 14 13 13 13 13 13 12 12 12 12 12 12 12 12 12 11 11 11 11 11 11 11 10 10 10 10 9 9 9 9 8 8 8 8 8 8 7 8 7 7 7
13 13 13 13 12 12 12 12 12 11 11 11 11 11 11 11 11 11 11 11 10 10 10 10 10 9 9 9 8 8 8 8 7 7 7 7 7 6 6 6 6 6 6
13 13 12 12 12 11 11 11 11 11 11 11 11 11 10 10 10 10 10 10 10 10 9 9 9 9 8 8 7 7 7 7 6 6 6 6 6 6 5 5 5 5 5
12 12 12 12 11 11 11 11 11 11 10 10 10 10 10 10 10 10 10 9 9 9 9 8 8 8 7 7 6 6 6 6 5 5 5 5 4 4 4 4 4 4 4
Wind_Speed
8 9 11 10 10 9 10 11 11 10 10 8 8 7 6 5 4 4 8 8 8 8 7 4 4 4 4 3 3 3 3 2 1 3 3 4 2 0 1 1 2 3 6
8 9 10 9 10 11 10 10 10 10 9 8 6 5 6 4 4 3 5 7 8 7 7 5 4 4 4 5 4 3 2 2 2 3 3 3 4 3 1 0 2 1 2
12 11 11 10 10 11 12 12 10 10 9 8 7 7 5 4 3 3 3 4 8 7 7 7 5 4 4 4 3 3 4 2 3 2 4 4 3 2 3 2 1 1 1
10 11 12 12 12 11 10 10 9 9 9 9 10 10 7 6 5 5 4 3 6 7 8 7 6 5 4 4 3 4 3 4 2 2 2 2 3 3 0 3 3 2 1
11 12 12 12 11 11 11 10 10 9 8 9 10 9 7 5 4 4 5 4 3 5 7 8 7 5 4 4 4 4 4 3 3 2 1 3 3 3 3 1 3 3 2
11 11 10 10 9 9 10 10 10 9 8 9 9 9 9 8 8 6 6 4 3 3 5 6 6 5 4 4 4 4 4 3 3 3 2 2 2 1 2 2 1 2 3
11 11 11 11 10 11 11 10 11 10 9 9 8 8 8 9 10 8 7 6 4 4 5 4 4 4 4 5 4 4 3 3 3 3 2 2 2 2 3 3 1 1 3
11 12 12 11 12 12 11 11 12 10 9 9 8 7 8 6 6 7 7 7 6 6 7 6 6 6 6 5 4 3 2 2 2 2 2 1 1 1 2 3 3 1 3
12 12 12 11 12 13 12 12 11 10 9 9 8 7 7 7 7 7 7 6 6 6 7 7 7 6 6 5 5 3 3 3 3 2 1 1 1 0 1 2 3 4 1
11 12 12 12 12 12 11 11 11 11 9 9 9 8 7 7 7 6 7 7 6 6 8 9 8 7 7 6 5 4 3 4 4 3 3 2 2 1 0 1 2 3 4
12 12 12 11 11 10 11 11 11 10 10 10 9 8 7 7 7 6 7 7 6 7 8 9 9 9 8 7 6 6 5 5 5 4 4 5 4 3 2 1 1 2 3
11 11 11 11 11 11 11 11 11 11 10 10 9 8 8 7 7 7 7 7 7 7 8 9 9 9 9 8 8 8 7 7 7 7 6 7 5 5 4 4 4 4 4
8 9 9 10 11 11 11 11 11 11 10 9 8 8 7 7 7 7 7 6 7 7 8 8 9 9 9 9 9 9 8 8 8 8 8 8 7 7 6 6 6 5 5
7 8 9 10 10 10 10 10 10 10 10 9 9 8 8 8 7 7 7 7 7 7 7 8 8 9 9 9 9 9 9 9 9 8 9 9 9 9 9 8 8 7 7
6 7 8 8 8 8 8 8 8 7 8 8 8 8 7 6 6 6 6 6 6 7 7 7 7 7 7 7 8 8 8 8 8 8 8 9 10 12 10 8 7 7 7
7 7 7 8 8 8 8 7 7 6 6 6 5 3 3 3 3 3 3 3 3 4 4 5 5 5 5 5 8 7 6 5 6 6 6 7 7 8 10 11 10 9 9
8 8 7 7 7 7 8 9 8 8 8 7 5 5 4 3 2 2 2 1 0 0 1 2 3 2 2 3 3 5 3 2 3 3 4 4 4 4 4 6 8 9 12
10 9 8 9 8 8 9 9 9 10 10 9 7 7 6 5 6 5 4 3 2 3 2 2 2 3 2 2 2 1 1 1 2 2 2 2 3 5 5 5 5 6 7
11 10 10 11 11 10 11 13 12 11 11 10 8 7 7 8 7 6 5 4 4 5 4 4 5 5 4 5 5 4 3 3 4 5 5 4 4 7 9 6 7 8 9
12 12 12 13 13 10 11 14 12 11 10 8 8 7 7 7 7 5 4 4 5 5 5 6 5 6 5 6 7 7 4 4 4 4 5 6 6 8 9 6 6 9 10
12 13 13 13 11 9 12 14 12 10 7 7 8 8 7 7 6 5 5 6 6 7 7 7 6 6 7 9 10 9 5 4 3 3 3 4 9 11 12 9 6 10 11
12 12 14 12 10 9 13 14 11 7 7 8 8 6 5 5 6 6 5 5 6 7 6 6 5 4 5 7 8 9 7 4 2 2 3 5 11 13 14 10 11 14 12
12 11 13 13 10 9 10 12 7 7 8 8 7 6 5 5 4 5 5 4 4 4 3 3 3 3 3 4 6 6 5 5 2 3 7 10 12 12 10 11 13 11 7
11 10 12 12 9 8 9 8 7 7 8 7 6 5 6 5 5 4 3 3 2 3 2 2 2 2 2 2 3 3 4 5 4 4 7 10 10 8 8 9 8 6 6
9 9 10 10 9 8 7 6 7 8 8 7 6 6 5 5 4 4 2 2 1 2 3 2 2 2 1 3 3 3 3 4 4 4 3 4 5 6 6 6 6 6 6
9 9 9 9 8 7 6 5 6 7 7 6 5 4 4 4 4 4 5 7 6 8 8 8 6 3 2 4 6 7 8 8 6 3 3 4 5 5 6 7 7 6 7
Wind_Direction
175 166 167 168 159 158 160 157 154 152 145 139 135 133 135 141 132 136 135 124 113 104 99 93 78 86 94 98 97 88 70 50 74 72 32 5 8 1 201 173 175 203 206
165 168 166 168 167 165 162 154 156 155 153 148 144 141 140 146 142 134 134 131 121 117 107 106 100 91 92 77 69 77 83 30 62 113 91 33 356 347 337 206 174 179 178
168 168 169 173 172 172 168 165 162 159 155 146 129 121 106 98 100 124 139 144 133 124 117 113 107 94 103 97 84 82 101 79 23 79 135 140 200 296 334 320 249 183 167
169 169 170 174 177 177 169 163 163 161 158 149 143 147 148 154 175 171 166 159 150 141 133 121 113 105 107 110 107 92 99 106 65 16 37 141 155 143 305 328 321 300 214
173 172 172 174 175 171 167 165 163 166 166 157 154 153 150 158 156 151 153 158 158 159 150 135 126 120 116 117 107 95 89 99 109 87 55 56 56 82 131 228 313 332 305
170 166 163 165 168 166 164 166 165 170 172 163 157 156 156 157 152 158 168 175 175 170 168 154 144 143 136 134 127 117 107 104 101 94 90 105 105 112 127 162 254 288 294
165 164 167 169 170 170 169 170 170 176 177 168 164 164 164 163 166 170 177 178 183 189 193 169 159 158 164 160 146 133 128 128 120 124 118 116 140 160 144 133 163 302 306
171 174 176 175 172 173 174 174 177 180 178 172 173 171 167 165 172 175 177 186 194 199 190 180 176 176 175 170 155 148 165 159 156 150 141 137 163 152 155 153 142 59 334
178 177 176 176 175 176 179 178 178 181 180 179 176 177 176 172 176 179 180 190 200 202 190 183 182 182 181 176 166 175 194 188 195 200 197 198 242 186 168 163 156 150 184
180 178 178 178 178 178 177 174 177 184 184 181 183 188 187 185 183 180 188 195 202 199 183 185 185 186 186 182 177 184 199 195 212 211 215 232 236 251 222 161 169 164 170
183 183 181 179 176 174 175 178 180 182 185 188 189 187 189 190 187 191 198 197 197 191 186 186 187 191 194 193 191 202 204 208 226 229 221 235 233 240 247 221 188 188 175
181 182 179 175 176 178 180 182 184 186 189 190 189 193 193 191 196 204 206 199 195 193 191 188 190 198 201 199 199 210 213 213 224 231 229 237 236 236 239 235 236 230 210
172 173 173 176 180 182 182 184 187 189 187 183 186 194 195 195 203 210 211 205 200 197 193 191 196 204 205 205 208 211 216 218 223 225 226 232 229 237 236 233 236 239 238
165 168 172 177 178 178 180 183 187 186 184 183 185 191 197 200 204 208 208 208 203 199 199 199 202 205 207 208 212 213 219 225 229 228 228 230 226 231 232 235 234 234 241
144 160 165 168 168 169 174 177 178 179 182 179 190 201 201 202 202 206 213 213 208 210 204 203 208 209 211 217 214 217 223 226 234 238 237 238 236 234 234 239 235 232 239
137 137 141 146 153 160 164 161 152 148 142 148 170 172 159 168 190 206 215 222 228 226 207 204 209 214 225 226 216 209 222 225 233 245 254 257 255 256 252 252 249 237 239
123 124 131 137 136 135 137 132 129 123 118 119 112 104 109 113 107 103 90 100 197 140 181 186 183 188 217 233 218 213 214 239 255 264 274 280 294 303 293 283 278 268 259
103 101 101 101 100 102 101 100 96 96 98 95 90 88 94 94 84 76 72 65 69 71 74 83 103 102 75 86 106 113 104 50 355 342 332 334 357 3 351 330 320 304 292
96 91 91 93 93 94 98 97 91 90 90 90 87 87 92 91 85 78 68 63 70 67 63 64 75 80 57 60 70 79 64 41 19 16 24 26 17 9 11 357 331 315 305
93 92 87 85 83 82 89 92 89 88 88 91 90 88 91 92 91 86 76 67 77 76 72 66 70 75 65 60 72 82 70 51 30 19 19 25 19 3 1 348 320 305 301
95 94 90 86 83 85 89 89 85 85 89 90 88 86 87 92 90 83 74 74 75 72 68 69 67 72 75 66 69 74 74 68 42 13 347 330 339 338 332 323 289 281 290
97 96 95 89 81 81 88 87 81 80 79 78 77 75 76 81 85 78 68 74 84 83 80 79 68 62 65 69 68 66 66 67 62 327 309 311 323 326 323 317 302 302 304
102 99 100 94 83 78 87 91 85 78 74 69 64 61 57 56 69 81 79 78 86 93 90 91 87 67 53 50 55 51 38 25 7 303 307 313 316 320 318 314 315 319 316
105 104 101 98 89 81 82 90 88 78 72 62 50 46 47 41 43 55 76 91 99 101 101 105 109 94 47 14 5 4 358 350 342 325 317 316 317 319 311 314 320 320 313
109 105 105 104 100 92 85 83 83 80 71 58 47 42 43 44 39 35 41 66 85 134 127 122 122 111 47 328 346 359 338 324 311 323 333 340 337 336 329 322 317 318 323
110 107 107 109 106 98 87 76 77 79 72 55 41 37 38 36 39 42 38 44 56 71 83 90 95 84 53 7 6 358 350 347 354 19 345 328 323 320 319 319 318 317 316
Height
1498 1499 1502 1505 1507 1511 1514 1518 1522 1526 1530 1533 1536 1539 1543 1545 1547 1548 1549 1550 1550 1551 1552 1552 1553 1554 1555 1557 1558 1559 1561 1562 1563 1564 1566 1567 1568 1568 1568 1569 1569 1570 1570
1497 1498 1500 1503 1505 1508 1512 1517 1521 1525 1529 1532 1535 1539 1542 1544 1546 1548 1549 1549 1550 1550 1551 1552 1553 1554 1555 1556 1557 1559 1560 1561 1562 1564 1565 1566 1568 1568 1568 1568 1569 1569 1570
1495 1497 1499 1501 1504 1508 1511 1515 1519 1523 1528 1532 1535 1538 1541 1543 1545 1547 1548 1549 1550 1550 1551 1552 1553 1554 1555 1556 1557 1558 1560 1561 1562 1563 1564 1565 1566 1567 1568 1568 1568 1569 1569
1494 1496 1499 1501 1503 1506 1511 1514 1518 1523 1527 1530 1533 1536 1538 1541 1544 1546 1547 1548 1549 1550 1550 1551 1552 1553 1554 1555 1556 1558 1559 1560 1561 1562 1563 1564 1564 1566 1567 1568 1568 1568 1568
1494 1496 1498 1500 1503 1506 1509 1513 1518 1522 1526 1529 1533 1535 1538 1541 1543 1545 1547 1548 1548 1549 1550 1551 1552 1553 1554 1555 1556 1557 1559 1560 1561 1562 1562 1563 1564 1564 1565 1566 1567 1567 1568
1493 1495 1497 1500 1503 1506 1509 1513 1517 1520 1524 1528 1531 1534 1537 1539 1542 1544 1546 1547 1548 1549 1550 1551 1552 1553 1553 1554 1555 1557 1558 1559 1560 1561 1562 1563 1563 1564 1564 1565 1565 1566 1566
1491 1493 1496 1499 1502 1505 1508 1512 1515 1519 1523 1526 1530 1533 1536 1539 1541 1543 1545 1546 1547 1548 1549 1551 1551 1552 1553 1554 1555 1556 1557 1558 1559 1561 1562 1562 1563 1563 1564 1564 1564 1565 1565
1490 1492 1495 1498 1500 1503 1507 1510 1514 1518 1522 1525 1528 1532 1535 1538 1540 1542 1544 1546 1547 1548 1549 1550 1551 1552 1552 1553 1554 1555 1556 1557 1558 1559 1560 1561 1562 1562 1563 1563 1564 1563 1563
1489 1491 1494 1497 1499 1502 1505 1509 1513 1517 1521 1524 1528 1531 1534 1537 1539 1541 1543 1545 1546 1547 1548 1549 1550 1551 1552 1552 1553 1554 1554 1556 1557 1558 1559 1559 1560 1561 1561 1562 1562 1563 1561
1488 1491 1493 1496 1498 1501 1505 1508 1512 1516 1520 1524 1527 1530 1533 1536 1538 1540 1542 1543 1545 1546 1547 1548 1549 1550 1551 1551 1552 1552 1553 1554 1555 1556 1557 1558 1559 1559 1560 1560 1560 1560 1560
1486 1489 1492 1495 1498 1501 1504 1508 1511 1515 1519 1522 1525 1528 1531 1534 1536 1538 1540 1542 1543 1544 1546 1547 1548 1549 1549 1550 1551 1551 1552 1553 1553 1554 1555 1556 1557 1557 1558 1558 1558 1558 1558
1484 1488 1491 1494 1497 1500 1503 1506 1510 1513 1517 1520 1524 1526 1529 1532 1534 1536 1538 1540 1541 1542 1544 1545 1546 1547 1548 1548 1549 1550 1550 1551 1552 1552 1553 1554 1554 1555 1555 1555 1555 1555 1555
1483 1487 1490 1492 1495 1498 1502 1505 1508 1512 1515 1518 1522 1524 1527 1529 1531 1533 1536 1537 1539 1540 1541 1542 1543 1544 1545 1546 1547 1547 1548 1549 1549 1550 1550 1551 1551 1552 1552 1552 1552 1552 1552
1481 1484 1487 1490 1493 1497 1500 1503 1507 1510 1513 1516 1519 1521 1524 1526 1528 1531 1533 1534 1536 1537 1538 1539 1540 1541 1542 1543 1544 1544 1545 1545 1546 1547 1547 1548 1548 1548 1548 1548 1548 1547 1547
1480 1482 1485 1488 1491 1495 1499 1502 1505 1508 1511 1514 1516 1519 1521 1525 1527 1528 1530 1531 1532 1533 1534 1536 1536 1537 1538 1539 1539 1540 1541 1541 1542 1542 1543 1543 1543 1543 1543 1543 1542 1542 1541
1479 1481 1483 1486 1489 1493 1496 1500 1503 1506 1509 1512 1514 1517 1518 1521 1523 1525 1526 1527 1528 1529 1531 1531 1532 1532 1533 1534 1535 1536 1536 1537 1537 1537 1537 1538 1538 1537 1537 1537 1536 1536 1535
1479 1481 1483 1485 1488 1492 1495 1498 1501 1504 1507 1510 1512 1515 1516 1518 1520 1521 1522 1523 1524 1525 1526 1527 1528 1528 1529 1530 1530 1531 1531 1532 1532 1531 1531 1531 1531 1531 1530 1529 1529 1528 1528
1480 1482 1483 1486 1489 1492 1495 1498 1501 1504 1506 1508 1510 1512 1514 1515 1516 1518 1519 1520 1521 1522 1522 1523 1524 1525 1525 1526 1526 1526 1527 1526 1526 1526 1525 1525 1524 1523 1522 1521 1520 1520 1519
1481 1483 1485 1487 1490 1493 1496 1498 1501 1503 1505 1507 1509 1511 1512 1513 1514 1516 1516 1517 1518 1519 1520 1520 1521 1521 1521 1522 1522 1522 1522 1522 1521 1521 1520 1519 1518 1517 1515 1514 1512 1511 1510
1484 1486 1488 1490 1493 1495 1497 1499 1501 1504 1505 1507 1509 1510 1511 1512 1514 1514 1515 1515 1516 1517 1518 1518 1518 1518 1519 1519 1518 1518 1518 1517 1517 1516 1515 1514 1513 1511 1509 1507 1505 1502 1501
1488 1490 1492 1494 1496 1499 1500 1501 1503 1505 1507 1508 1509 1510 1511 1512 1513 1513 1514 1514 1515 1515 1516 1516 1516 1516 1516 1516 1515 1515 1514 1513 1513 1512 1510 1509 1507 1505 1504 1501 1499 1496 1492
1491 1493 1494 1497 1500 1502 1503 1503 1505 1508 1509 1510 1511 1511 1512 1512 1513 1513 1513 1514 1514 1514 1514 1515 1515 1514 1514 1513 1512 1512 1510 1509 1508 1507 1505 1503 1501 1499 1497 1494 1491 1488 1485
1494 1497 1498 1501 1504 1506 1507 1507 1509 1511 1512 1512 1512 1513 1513 1513 1513 1514 1514 1514 1514 1514 1513 1514 1513 1512 1511 1511 1510 1509 1507 1506 1504 1502 1500 1498 1496 1493 1491 1488 1485 1482 1478
1498 1500 1501 1503 1506 1509 1510 1510 1512 1513 1514 1514 1514 1514 1514 1513 1513 1514 1513 1513 1513 1513 1512 1512 1511 1510 1509 1508 1506 1505 1503 1502 1500 1497 1495 1493 1491 1488 1485 1482 1479 1476 1473
1501 1503 1504 1506 1509 1511 1512 1513 1514 1514 1515 1515 1515 1515 1514 1514 1514 1514 1513 1512 1512 1511 1511 1510 1509 1508 1506 1505 1503 1501 1499 1497 1494 1492 1489 1487 1485 1482 1479 1476 1473 1470 1467
1503 1505 1507 1509 1512 1513 1515 1516 1516 1516 1516 1516 1516 1515 1515 1514 1513 1513 1512 1511 1511 1509 1508 1508 1507 1505 1504 1502 1500 1498 1495 1493 1490 1487 1484 1482 1479 1476 1473 1470 1467 1464 1461